Luverne, MN

1:33 AM CST on November 15, 2019 (GMT -0600)
Luverne

Weather History for KLYV - October, 2019

Change the Weather History Date:

Saturday, October 12, 2019

  Actual Average (KPQN) Record (KPQN)
Temperature  
Mean Temperature 32 °F -  
Max Temperature 33 °F 59 °F 77 °F (1996)
Min Temperature 30 °F 37 °F 21 °F (2006)
Degree Days  
Heating Degree Days 34    
Moisture  
Dew Point 27 °F    
Average Humidity 85    
Maximum Humidity 93    
Minimum Humidity 69    
Precipitation  
Precipitation 0.00 in - - ()
Sea Level Pressure  
Sea Level Pressure 29.78 in    
Wind  
Wind Speed 17 mph (West)    
Max Wind Speed 24 mph    
Max Gust Speed 34 mph    
Visibility 6 miles    
Events Snow    
Averages and records for this station are not official NWS values.
T = Trace of Precipitation, MM = Missing Value Source: NWS Daily Summary

Daily Weather History Graph

Daily Weather History Graph

Search for Another Location

Airport or City:

Astronomy

Oct. 12, 2019 Rise Set
Actual Time 7:35 AM CDT 6:46 PM CDT
Civil Twilight 7:06 AM CDT 7:15 PM CDT
Nautical Twilight 6:33 AM CDT 7:48 PM CDT
Astronomical Twilight 5:59 AM CDT 8:21 PM CDT
Moon 6:46 PM CDT (10/12) 6:08 AM CDT (10/12)
Length of Visible Light 12h 09m
Length of Day
11h 11m
Waxing Gibbous, 99% of the Moon is Illuminated
Oct 12
Waxing Gibbous
Oct 13
Full
Oct 21
Last Quarter
Oct 27
New
Nov 4
First Quarter

Hourly Weather History & Observations

Time (CDT) Temp. Windchill Dew Point Humidity Pressure Visibility Wind Dir Wind Speed Gust Speed Precip Events Conditions
12:15 AM 30.2 °F 18.9 °F 21.2 °F 69% 29.89 in 10.0 mi West 16.1 mph 23.0 mph N/A   Clear
12:36 AM 30.2 °F 18.9 °F 21.2 °F 69% 29.88 in 10.0 mi West 16.1 mph 23.0 mph N/A   Clear
12:56 AM 30.2 °F 18.5 °F 23.0 °F 75% 29.87 in 10.0 mi WSW 17.3 mph - N/A   Clear
1:18 AM 30.2 °F 19.3 °F 23.0 °F 75% 29.87 in 10.0 mi WSW 15.0 mph 20.7 mph N/A   Clear
1:37 AM 30.2 °F 18.5 °F 23.0 °F 75% 29.87 in 10.0 mi WSW 17.3 mph - N/A   Clear
1:56 AM 30.2 °F 19.3 °F 23.0 °F 75% 29.86 in 10.0 mi WSW 15.0 mph 18.4 mph N/A   Clear
2:16 AM 30.2 °F 19.8 °F 23.0 °F 75% 29.85 in 10.0 mi WSW 13.8 mph - N/A   Clear
2:35 AM 30.2 °F 19.3 °F 23.0 °F 75% 29.85 in 10.0 mi WSW 15.0 mph 19.6 mph N/A   Clear
2:39 AM 30.2 °F 19.3 °F 23.0 °F 75% 29.84 in 10.0 mi WSW 15.0 mph - N/A   Clear
2:57 AM 30.2 °F 18.9 °F 23.0 °F 75% 29.84 in 10.0 mi WSW 16.1 mph 20.7 mph N/A   Clear
3:15 AM 30.2 °F 19.3 °F 23.0 °F 75% 29.83 in 10.0 mi WSW 15.0 mph 21.9 mph N/A   Clear
3:36 AM 30.2 °F 19.3 °F 23.0 °F 75% 29.81 in 10.0 mi WSW 15.0 mph 21.9 mph N/A   Clear
3:56 AM 30.2 °F 19.3 °F 23.0 °F 75% 29.81 in 10.0 mi WSW 15.0 mph 24.2 mph N/A   Clear
4:19 AM 30.2 °F 19.3 °F 23.0 °F 75% 29.81 in 10.0 mi WSW 15.0 mph 20.7 mph N/A   Clear
4:36 AM 30.2 °F 18.9 °F 23.0 °F 75% 29.81 in 10.0 mi WSW 16.1 mph 20.7 mph N/A   Clear
4:56 AM 30.2 °F 18.9 °F 23.0 °F 75% 29.79 in 10.0 mi WSW 16.1 mph 21.9 mph N/A   Clear
5:15 AM 30.2 °F 18.5 °F 23.0 °F 75% 29.78 in 10.0 mi WSW 17.3 mph 23.0 mph N/A   Clear
5:35 AM 30.2 °F 19.3 °F 23.0 °F 75% 29.78 in 10.0 mi WSW 15.0 mph - N/A   Clear
5:40 AM 30.2 °F 19.3 °F 23.0 °F 75% 29.78 in 10.0 mi WSW 15.0 mph 21.9 mph N/A   Clear
5:58 AM 30.2 °F 18.9 °F 24.8 °F 80% 29.78 in 10.0 mi WSW 16.1 mph 20.7 mph N/A   Clear
6:15 AM 30.2 °F 18.9 °F 24.8 °F 80% 29.77 in 10.0 mi WSW 16.1 mph - N/A   Clear
6:36 AM 30.2 °F 18.5 °F 24.8 °F 80% 29.77 in 10.0 mi WSW 17.3 mph 23.0 mph N/A   Clear
6:56 AM 30.2 °F 18.5 °F 24.8 °F 80% 29.77 in 10.0 mi WSW 17.3 mph 23.0 mph N/A   Clear
7:18 AM 30.2 °F 18.1 °F 24.8 °F 80% 29.75 in 10.0 mi WSW 18.4 mph 25.3 mph N/A   Scattered Clouds
7:36 AM 32.0 °F 20.8 °F 24.8 °F 75% 29.75 in 10.0 mi WSW 17.3 mph 25.3 mph N/A   Mostly Cloudy
7:56 AM 32.0 °F 20.5 °F 24.8 °F 75% 29.74 in 10.0 mi WSW 18.4 mph 27.6 mph N/A   Overcast
8:15 AM 32.0 °F 21.2 °F 24.8 °F 75% 29.74 in 10.0 mi West 16.1 mph 24.2 mph N/A   Overcast
8:35 AM 32.0 °F 19.2 °F 24.8 °F 75% 29.74 in 10.0 mi West 23.0 mph 31.1 mph N/A Snow Light Snow
8:39 AM 32.0 °F 19.8 °F 24.8 °F 75% 29.74 in 5.0 mi West 20.7 mph 33.4 mph N/A Snow Light Snow
8:58 AM 32.0 °F 20.1 °F 28.4 °F 87% 29.74 in 3.0 mi West 19.6 mph 33.4 mph N/A Snow Light Snow
9:15 AM 32.0 °F 20.1 °F 28.4 °F 87% 29.74 in 3.0 mi West 19.6 mph 24.2 mph N/A Snow Light Snow
9:36 AM 32.0 °F 19.8 °F 28.4 °F 87% 29.73 in 7.0 mi West 20.7 mph 27.6 mph N/A Snow Light Snow
9:56 AM 32.0 °F 18.9 °F 28.4 °F 87% 29.72 in 7.0 mi West 24.2 mph 32.2 mph N/A Snow Light Snow
10:19 AM 32.0 °F 20.8 °F 28.4 °F 87% 29.72 in 10.0 mi West 17.3 mph 28.8 mph N/A   Overcast
10:37 AM 33.8 °F 22.5 °F 26.6 °F 75% 29.72 in 10.0 mi West 19.6 mph 28.8 mph N/A   Overcast
10:56 AM 33.8 °F 21.9 °F 26.6 °F 75% 29.72 in 10.0 mi West 21.9 mph 31.1 mph N/A   Overcast
11:16 AM 33.8 °F 23.5 °F 26.6 °F 75% 29.72 in 5.0 mi West 16.1 mph 31.1 mph N/A Snow Light Snow
11:40 AM 33.8 °F 23.9 °F 30.2 °F 87% 29.73 in 3.0 mi West 15.0 mph 28.8 mph N/A Snow Light Snow
11:57 AM 33.8 °F 21.6 °F 30.2 °F 87% 29.74 in 10.0 mi West 23.0 mph 34.5 mph N/A Snow Light Snow
12:15 PM 33.8 °F 22.2 °F 30.2 °F 87% 29.74 in 3.0 mi West 20.7 mph 31.1 mph N/A Snow Light Snow
12:36 PM 32.0 °F 19.8 °F 30.2 °F 93% 29.75 in 1.8 mi West 20.7 mph 28.8 mph N/A Snow Light Snow
12:58 PM 32.0 °F 20.5 °F 30.2 °F 93% 29.75 in 1.5 mi West 18.4 mph 28.8 mph N/A Snow Light Snow
1:16 PM 32.0 °F 19.2 °F 30.2 °F 93% 29.75 in 3.0 mi West 23.0 mph 31.1 mph N/A Snow Light Snow
1:36 PM 32.0 °F 20.1 °F 30.2 °F 93% 29.75 in 1.8 mi West 19.6 mph 25.3 mph N/A Snow Light Snow
1:56 PM 32.0 °F 20.1 °F 30.2 °F 93% 29.75 in 0.2 mi West 19.6 mph 29.9 mph N/A Snow Light Snow
2:19 PM 32.0 °F 20.1 °F 30.2 °F 93% 29.75 in 0.8 mi West 19.6 mph 23.0 mph N/A Snow Light Snow
2:36 PM 32.0 °F 20.1 °F 30.2 °F 93% 29.75 in 1.8 mi West 19.6 mph 26.5 mph N/A Snow Light Snow
2:56 PM 32.0 °F 20.1 °F 30.2 °F 93% 29.75 in 1.8 mi West 19.6 mph 29.9 mph N/A Snow Light Snow
3:16 PM 32.0 °F 20.1 °F 30.2 °F 93% 29.75 in 4.0 mi West 19.6 mph 28.8 mph N/A Snow Light Snow
3:39 PM 32.0 °F 20.5 °F 30.2 °F 93% 29.76 in 2.5 mi West 18.4 mph 27.6 mph N/A Snow Light Snow
3:56 PM 32.0 °F 20.1 °F 30.2 °F 93% 29.77 in 3.0 mi West 19.6 mph 31.1 mph N/A Snow Light Snow
4:16 PM 32.0 °F 19.8 °F 30.2 °F 93% 29.76 in 3.0 mi West 20.7 mph 24.2 mph N/A Snow Light Snow
4:36 PM 32.0 °F 20.5 °F 30.2 °F 93% 29.76 in 1.8 mi West 18.4 mph 25.3 mph N/A Snow Light Snow
4:55 PM 32.0 °F 20.5 °F 30.2 °F 93% 29.77 in 1.8 mi West 18.4 mph 26.5 mph N/A Snow Light Snow
5:00 PM 32.0 °F 20.1 °F 30.2 °F 93% 29.77 in 2.0 mi West 19.6 mph 25.3 mph N/A Snow Light Snow
5:17 PM 32.0 °F 20.5 °F 30.2 °F 93% 29.77 in 2.5 mi West 18.4 mph 26.5 mph N/A Snow Light Snow
5:35 PM 32.0 °F 20.8 °F 30.2 °F 93% 29.78 in 4.0 mi West 17.3 mph 24.2 mph N/A Snow Light Snow
5:56 PM 32.0 °F 21.2 °F 30.2 °F 93% 29.79 in 1.8 mi West 16.1 mph 26.5 mph N/A Snow Light Snow
6:16 PM 32.0 °F 20.8 °F 30.2 °F 93% 29.79 in 1.0 mi West 17.3 mph 25.3 mph N/A Snow Light Snow
6:38 PM 32.0 °F 20.8 °F 30.2 °F 93% 29.79 in 1.5 mi West 17.3 mph 21.9 mph N/A Snow Light Snow
7:16 PM 32.0 °F 21.2 °F 30.2 °F 93% 29.79 in 1.8 mi West 16.1 mph 24.2 mph N/A Snow Light Snow
7:36 PM 32.0 °F 21.2 °F 30.2 °F 93% 29.80 in 3.0 mi West 16.1 mph 23.0 mph N/A Snow Light Snow
7:55 PM 32.0 °F 21.6 °F 30.2 °F 93% 29.80 in 3.0 mi West 15.0 mph 23.0 mph N/A Snow Light Snow
7:59 PM 32.0 °F 20.5 °F 30.2 °F 93% 29.80 in 4.0 mi West 18.4 mph 23.0 mph N/A Snow Light Snow
8:17 PM 32.0 °F 22.1 °F 30.2 °F 93% 29.80 in 3.0 mi West 13.8 mph 20.7 mph N/A Snow Light Snow
8:36 PM 32.0 °F 22.1 °F 30.2 °F 93% 29.80 in 3.0 mi West 13.8 mph 24.2 mph N/A Snow Light Snow
8:56 PM 32.0 °F 22.5 °F 30.2 °F 93% 29.80 in 2.0 mi West 12.7 mph - N/A Snow Light Snow
9:15 PM 32.0 °F 21.6 °F 30.2 °F 93% 29.80 in 1.2 mi West 15.0 mph 19.6 mph N/A Snow Light Snow
9:20 PM 32.0 °F 22.1 °F 30.2 °F 93% 29.80 in 1.8 mi West 13.8 mph 19.6 mph N/A Snow Light Snow
9:37 PM 32.0 °F 23.6 °F 30.2 °F 93% 29.80 in 1.8 mi West 10.4 mph - N/A Snow Light Snow
10:16 PM 32.0 °F 21.2 °F 30.2 °F 93% 29.80 in 5.0 mi West 16.1 mph 20.7 mph N/A Snow Light Snow
10:36 PM 32.0 °F 21.6 °F 30.2 °F 93% 29.80 in 10.0 mi West 15.0 mph 21.9 mph N/A   Mostly Cloudy
10:58 PM 32.0 °F 22.1 °F 30.2 °F 93% 29.80 in 10.0 mi West 13.8 mph - N/A   Scattered Clouds
11:16 PM 32.0 °F 22.1 °F 30.2 °F 93% 29.79 in 10.0 mi West 13.8 mph 20.7 mph N/A   Clear
11:36 PM 32.0 °F 22.5 °F 28.4 °F 87% 29.79 in 10.0 mi West 12.7 mph - N/A   Mostly Cloudy
11:55 PM 32.0 °F 22.5 °F 30.2 °F 93% 29.79 in 10.0 mi West 12.7 mph - N/A   Overcast